Location: Cicognara
(44.9500°N, 10.4667°E)
Time: 09:00:40
(UTC+00:00)

Cosmos 1825 Rocket - Pass Details

Date: 20 June 2021
Orbit: 603 x 631 km, 82.5° (Epoch: 04 August)

Event Time Altitude Azimuth Distance (km) Brightness Sun altitude
Exits shadow 23:25:13 53° 136° (SE) 774 3.7 -21.6°
Maximum altitude 23:25:54 61° 95° (E) 718 3.8 -21.6°
Drops below altitude 10° 23:30:18 10° 15° (NNE) 2,014 7.3 -21.6°
Sets 23:32:33 0° 13° (NNE) 2,922 8.5 -21.5°
